Location: Newark
(42.9858°N, 0.6717°E)
Time: 02:34:09
(UTC+00:00)

S-56A Canister/Altair - Pass Details

Date: 21 November 2019
Orbit: 633 x 2499 km, 38.9° (Epoch: 10 December)

Event Time Altitude Azimuth Distance (km) Brightness Sun altitude
Rises 14:10:51 0° 207° (SSW) 5,950 13.7 18.5°
Reaches altitude 10° 14:15:52 10° 197° (SSW) 4,729 13.1 17.9°
Maximum altitude 14:25:31 26° 148° (SSE) 3,028 10.9 16.8°
Drops below altitude 10° 14:32:54 10° 96° (E) 3,558 10.6 16.0°
Sets 14:36:02 0° 84° (E) 4,264 10.9 15.6°
